Location: *
(45.1961°N, 1.9694°E)
Time: 22:53:02
(UTC+00:00)

Cosmos 1709 Rocket - Pass Details

Date: 25 August 2019
Orbit: 948 x 1002 km, 82.9° (Epoch: 19 September)

Event Time Altitude Azimuth Distance (km) Brightness Sun altitude
Rises 20:09:45 0° 354° (N) 3,634 7.6 -14.8°
Reaches altitude 10° 20:12:17 10° 358° (N) 2,688 6.8 -15.2°
Maximum altitude 20:18:21 61° 79° (ENE) 1,084 4.0 -16.0°
Enters shadow 20:22:32 21° 153° (SSE) 2,018 5.1 -16.7°
